[[{"header":{"parameterUnit":"m.s-1","parameterCategory":1,"la1":30.2991,"la2":30.254,"lo1":-89.0895,"lo2":-89.0444,"dy":0.0017,"dx":0.0017,"nx":28,"ny":28,"refTime":"2024-08-07T03:00:00:Z","depth":0,"parameterNumber":2,"parameterNumberName":"U-component_of_WINDS"},"data":[0,0,0,0,0,0,0,0,0,0,0,0,0,0,0,0,0,0,0,0,0,0,0,0,0,0,0,0,0,0,0,0,0,0,0,0,0,0,0,0,0,0,0,0,0,0,0,0,0,0,0,0,0,0,0,0,0,0,2.6921,2.6921,0,2.6957,2.6957,2.6957,2.6884,2.6882,2.688,2.6877,2.6917,2.692,2.6923,0,0,0,0,0,0,0,0,0,0,0,0,0,2.6796,2.6799,2.6921,2.6922,2.6922,2.6957,2.6957,2.6958,2.6885,2.6882,2.6879,2.6876,2.6916,2.692,2.6924,0,0,0,0,0,0,0,0,0,0,0,0,0,2.6843,2.68,2.6921,2.689,2.6887,2.6957,2.6957,2.6958,2.6885,2.6882,2.6878,2.6875,2.6914,2.6919,2.6924,2.7026,0,0,2.6939,2.6941,0,0,0,0,0,0,0,0,2.6841,2.6848,2.6894,2.6892,2.6889,2.6912,2.6928,2.6981,2.6886,2.6886,2.6877,2.6873,2.6918,2.6923,2.6937,2.7028,2.703,2.694,2.6943,2.6945,2.6946,0,0,0,0,0,0,0,2.6838,2.6846,2.6935,2.6895,2.6892,2.6876,2.6879,2.6937,2.6922,2.6886,2.6881,2.6886,2.6917,2.6933,2.6938,2.703,2.6939,2.6944,2.6947,2.6949,2.7214,2.7218,0,0,0,0,0,0,2.6838,2.6844,2.6934,2.6936,2.6856,2.6881,2.6884,2.6909,2.6921,2.692,2.6889,2.6882,2.6926,2.6932,2.6939,2.7064,2.6945,2.6949,2.6952,2.721,2.7215,2.7219,0,0,0,0,0,0,2.6835,2.6846,2.6933,2.6889,2.6898,2.6887,2.6915,2.6911,2.6927,2.6923,2.6921,2.6908,2.6924,2.6932,2.7006,2.7064,2.6951,2.6956,2.7205,2.7211,2.7217,2.7312,0,0,0,0,0,0,2.6832,2.6846,2.6883,2.689,2.6901,2.6998,2.6919,2.6915,2.6936,2.6928,2.6941,2.6939,2.6921,2.7,2.7011,2.7069,2.696,2.72,2.7208,2.7215,2.7304,2.7321,2.7335,0,0,0,0,0,2.6828,2.6907,2.6885,2.6896,2.6947,2.7001,2.7008,2.6984,2.6941,2.6979,2.6978,2.6939,2.7056,2.7008,2.702,2.708,2.7196,2.7205,2.7214,2.7297,2.7317,2.7335,0,0,0,0,0,0,2.6907,2.6907,2.6883,2.6967,2.6985,2.6989,2.7036,2.7006,2.7037,2.7028,2.6999,2.7003,2.7085,2.7089,2.7036,2.7183,2.7119,2.7131,2.7177,2.7197,2.7212,2.7211,2.6964,0,0,0,0,0,2.6934,2.6977,2.6975,2.705,2.706,2.7047,2.707,2.7051,2.7068,2.7076,2.7079,2.7099,2.7141,2.7168,2.7206,2.7304,2.7309,2.7352,2.7368,2.7381,2.7392,2.745,2.7471,2.7249,2.7249,2.7249,0,0,2.6991,2.6996,2.7025,2.7066,2.7077,2.7125,2.7054,2.7105,2.7142,2.7084,2.7155,2.7159,2.718,2.7268,2.7307,2.7274,2.7455,2.7392,2.7403,2.7407,2.7462,2.7483,2.7502,2.7255,2.7254,2.7253,0,0,2.7119,2.7126,2.7191,2.7205,2.7224,2.7215,2.7231,2.7241,2.7242,2.7313,2.7272,2.7316,2.7386,2.7404,2.7423,2.7564,2.7532,2.7577,2.766,2.7717,2.7735,2.775,2.7805,2.7825,2.7588,2.7589,2.7589,0,2.7187,2.7255,2.7228,2.7285,2.7307,2.7257,2.7326,2.734,2.7371,2.7389,2.7351,2.7443,2.7453,2.7548,2.7583,2.7598,2.7619,2.7576,2.7734,2.7749,2.7763,2.7816,2.7836,2.7594,2.7594,2.7593,2.7592,0,2.7341,2.739,2.7441,2.7473,2.75,2.7562,2.7547,2.7578,2.7559,2.7555,2.7632,2.7642,2.7684,2.7705,2.7684,2.7798,2.7779,2.7738,2.7673,2.7791,2.784,2.7859,2.7602,2.76,2.7599,2.7597,0,0,2.7519,2.7538,2.7558,2.7574,2.7593,2.7632,2.7694,2.7734,2.7764,2.7788,2.7842,2.7906,2.7871,2.7892,2.7874,2.7924,2.8042,2.7878,2.7878,2.7912,2.8174,2.8207,2.823,2.802,2.8023,2.8026,2.8174,0,2.7649,2.7755,2.7735,2.784,2.7887,2.7843,2.7898,2.7918,2.7918,2.796,2.7959,2.8007,2.7954,2.7968,2.8015,2.8017,2.8094,2.8006,2.8074,2.8076,2.8073,2.8255,2.8288,2.8427,2.8192,2.8195,2.8198,0,2.7815,2.7847,2.7957,2.7974,2.7993,2.8042,2.8082,2.8121,2.8145,2.8141,2.8168,2.8142,2.8208,2.8141,2.8234,2.8175,2.8202,2.8208,2.8213,2.822,2.8146,2.8271,2.847,2.8492,2.8227,2.8224,2.8222,0,2.794,2.801,2.8086,2.8101,2.8121,2.8158,2.8168,2.8188,2.8216,2.825,2.8269,2.8311,2.8334,2.8369,2.8357,2.8309,2.8455,2.8386,2.8458,2.8459,2.8492,2.8491,2.8702,2.8504,2.8504,2.8503,2.8503,0,2.8089,2.8159,2.8143,2.819,2.8269,2.8246,2.8326,2.8331,2.835,2.8401,2.8364,2.8413,2.8392,2.8441,2.8432,2.8514,2.8523,2.8526,2.8523,2.8531,2.8531,2.855,2.8542,2.8509,2.8507,2.8506,2.8505,0,2.8242,2.8233,2.8314,2.8328,2.8333,2.8391,2.8404,2.8451,2.8449,2.8513,2.8527,2.8525,2.858,2.8571,2.8632,2.8627,2.873,2.8714,2.8723,2.872,2.8795,2.879,2.9028,2.906,2.8838,2.884,2.8842,0,2.8339,2.8393,2.8414,2.8445,2.8458,2.8508,2.8537,2.8518,2.8551,2.8585,2.8628,2.868,2.8721,2.8812,2.8818,2.8866,2.8853,2.8933,2.886,2.8868,2.886,2.8859,2.8866,2.8949,2.8951,2.8953,2.8955,0,2.8516,2.851,2.8552,2.8595,2.8631,2.8664,2.8693,2.8721,2.8706,2.8745,2.8801,2.8833,2.8897,2.8952,2.8998,2.9011,2.8983,2.8978,2.8998,2.9008,2.9013,2.9017,2.8766,2.8973,2.8971,2.897,2.8969,2.8968,2.8647,2.8694,2.8718,2.8768,2.8789,2.8818,2.8864,2.8869,2.8915,2.8966,2.8953,2.9018,2.9046,2.9105,2.9124,2.9177,2.9148,2.9176,2.9183,2.9192,2.9203,2.9002,2.9185,2.9184,2.9184,2.9183,2.9183,0,2.8825,2.8839,2.8885,2.8929,2.897,2.8938,2.8971,2.9008,2.9066,2.9093,2.9135,2.9203,2.9257,2.9268,2.932,2.9361,2.935,2.9376,2.9375,2.938,2.9223,2.9203,2.9385,2.9385,2.9385,2.9385,2.9385,2.9384,2.8923,2.9003,2.9001,2.9094,2.9107,2.9171,2.9193,2.9222,2.9244,2.9322,2.9366,2.9373,2.9396,2.945,2.95,2.9502,2.9525,2.9557,2.9555,2.941,2.939,2.937,2.9351,2.9561,2.9562,2.9707,2.9708,2.971]},{"header":{"parameterUnit":"m.s-1","parameterCategory":1,"la1":30.2991,"la2":30.254,"lo1":-89.0895,"lo2":-89.0444,"dy":0.0017,"dx":0.0017,"nx":28,"ny":28,"refTime":"2024-08-07T03:00:00:Z","depth":0,"parameterNumber":3,"parameterNumberName":"V-component_of_WINDS"},"data":[0,0,0,0,0,0,0,0,0,0,0,0,0,0,0,0,0,0,0,0,0,0,0,0,0,0,0,0,0,0,0,0,0,0,0,0,0,0,0,0,0,0,0,0,0,0,0,0,0,0,0,0,0,0,0,0,0,0,-0.6583,-0.6581,0,-0.6399,-0.6397,-0.6395,-0.6388,-0.639,-0.6392,-0.6395,-0.6194,-0.6187,-0.618,0,0,0,0,0,0,0,0,0,0,0,0,0,-0.6917,-0.6911,-0.6583,-0.6581,-0.6578,-0.6399,-0.6397,-0.6394,-0.6388,-0.639,-0.6393,-0.6396,-0.6197,-0.6188,-0.6179,0,0,0,0,0,0,0,0,0,0,0,0,0,-0.6756,-0.6909,-0.6583,-0.6554,-0.6549,-0.64,-0.6396,-0.6393,-0.6387,-0.639,-0.6394,-0.6397,-0.62,-0.6189,-0.6178,-0.6041,0,0,-0.6144,-0.6139,0,0,0,0,0,0,0,0,-0.6765,-0.6744,-0.656,-0.6556,-0.655,-0.642,-0.6441,-0.6275,-0.6386,-0.6448,-0.6395,-0.6399,-0.6266,-0.6249,-0.6207,-0.6032,-0.6023,-0.6143,-0.6136,-0.6131,-0.6128,0,0,0,0,0,0,0,-0.6777,-0.6752,-0.651,-0.6558,-0.6551,-0.6546,-0.6527,-0.6409,-0.634,-0.6443,-0.6442,-0.6421,-0.6264,-0.6218,-0.6202,-0.602,-0.6143,-0.6133,-0.6126,-0.6122,-0.5722,-0.5719,0,0,0,0,0,0,-0.6795,-0.6761,-0.6515,-0.6504,-0.6669,-0.6537,-0.6516,-0.6458,-0.6341,-0.6327,-0.6419,-0.6422,-0.6235,-0.6215,-0.6195,-0.6026,-0.6131,-0.6121,-0.6114,-0.5726,-0.5721,-0.5717,0,0,0,0,0,0,-0.6802,-0.6773,-0.6523,-0.6632,-0.66,-0.6528,-0.6463,-0.6453,-0.6407,-0.6323,-0.6309,-0.6385,-0.6237,-0.6211,-0.608,-0.6019,-0.6116,-0.6106,-0.5731,-0.5725,-0.5719,-0.5689,0,0,0,0,0,0,-0.6812,-0.6776,-0.6726,-0.6632,-0.6594,-0.6414,-0.646,-0.6447,-0.6389,-0.6392,-0.6288,-0.6274,-0.6238,-0.6097,-0.6069,-0.6006,-0.6097,-0.5736,-0.5728,-0.5721,-0.5695,-0.5683,-0.5672,0,0,0,0,0,-0.6824,-0.6722,-0.6724,-0.6694,-0.6531,-0.6411,-0.6389,-0.6353,-0.6385,-0.6332,-0.6278,-0.6277,-0.6032,-0.6084,-0.6052,-0.5985,-0.5739,-0.573,-0.5722,-0.57,-0.5685,-0.5673,0,0,0,0,0,0,-0.6807,-0.6709,-0.671,-0.6575,-0.6502,-0.641,-0.6342,-0.6338,-0.6251,-0.6256,-0.6212,-0.6188,-0.6058,-0.6008,-0.6068,-0.5846,-0.5889,-0.5873,-0.5883,-0.5868,-0.5857,-0.587,-0.6088,0,0,0,0,0,-0.6789,-0.6703,-0.6621,-0.651,-0.6473,-0.6414,-0.636,-0.634,-0.626,-0.6227,-0.6164,-0.6083,-0.5988,-0.5925,-0.5833,-0.5689,-0.5664,-0.5627,-0.5615,-0.5607,-0.5592,-0.5511,-0.5492,-0.5688,-0.5688,-0.5688,0,0,-0.6747,-0.6684,-0.6631,-0.6505,-0.6445,-0.6354,-0.6388,-0.629,-0.622,-0.6211,-0.6085,-0.6035,-0.5942,-0.5804,-0.574,-0.5758,-0.5534,-0.5595,-0.5589,-0.5579,-0.55,-0.5481,-0.5465,-0.5682,-0.5683,-0.5684,0,0,-0.6626,-0.6571,-0.6472,-0.6412,-0.6324,-0.6286,-0.6262,-0.6171,-0.6139,-0.6012,-0.6003,-0.5918,-0.5755,-0.5689,-0.5634,-0.5489,-0.5484,-0.546,-0.5399,-0.532,-0.5305,-0.5291,-0.5236,-0.5218,-0.5447,-0.5447,-0.5447,0,-0.6585,-0.6451,-0.642,-0.6322,-0.6265,-0.6258,-0.6155,-0.6098,-0.5982,-0.5941,-0.5966,-0.5761,-0.5698,-0.5543,-0.5508,-0.5465,-0.5434,-0.547,-0.531,-0.5296,-0.5282,-0.523,-0.521,-0.5445,-0.5445,-0.5445,-0.5445,0,-0.6403,-0.631,-0.624,-0.6133,-0.6068,-0.5968,-0.5919,-0.5857,-0.5842,-0.58,-0.567,-0.5595,-0.5487,-0.5449,-0.5431,-0.5291,-0.5305,-0.5321,-0.5362,-0.5262,-0.5212,-0.5191,-0.5441,-0.5442,-0.5443,-0.5443,0,0,-0.6263,-0.6142,-0.6117,-0.6068,-0.597,-0.5895,-0.5794,-0.5693,-0.5639,-0.5559,-0.5471,-0.5334,-0.5348,-0.5286,-0.5261,-0.5192,-0.5079,-0.5215,-0.5212,-0.519,-0.4917,-0.4904,-0.4882,-0.5077,-0.5073,-0.507,-0.4924,0,-0.6129,-0.5953,-0.5923,-0.5767,-0.5679,-0.5672,-0.5583,-0.5512,-0.547,-0.5386,-0.5339,-0.5242,-0.5269,-0.5231,-0.5163,-0.5108,-0.5023,-0.5118,-0.499,-0.4986,-0.5012,-0.4856,-0.4842,-0.4708,-0.4904,-0.4901,-0.4899,0,-0.5948,-0.5868,-0.5705,-0.562,-0.5581,-0.5503,-0.5407,-0.5329,-0.5246,-0.5221,-0.5153,-0.5136,-0.5027,-0.5077,-0.4924,-0.4989,-0.4935,-0.4901,-0.4894,-0.4878,-0.4934,-0.4833,-0.4664,-0.4643,-0.4868,-0.487,-0.4873,0,-0.5859,-0.5711,-0.5594,-0.5552,-0.545,-0.5395,-0.5349,-0.5271,-0.5211,-0.5126,-0.5087,-0.4989,-0.4935,-0.4858,-0.4814,-0.4855,-0.4664,-0.471,-0.4636,-0.4637,-0.4593,-0.4596,-0.4411,-0.4564,-0.4564,-0.4564,-0.4565,0,-0.5711,-0.561,-0.5553,-0.548,-0.5367,-0.5332,-0.522,-0.5174,-0.5105,-0.5021,-0.5008,-0.4928,-0.4877,-0.4789,-0.4754,-0.4632,-0.4608,-0.4581,-0.4572,-0.4581,-0.4584,-0.4542,-0.4549,-0.4559,-0.456,-0.4561,-0.4562,0,-0.5591,-0.5549,-0.542,-0.5336,-0.5312,-0.5232,-0.5157,-0.5085,-0.5045,-0.4938,-0.4911,-0.4846,-0.4743,-0.4693,-0.4563,-0.4539,-0.44,-0.4398,-0.4428,-0.4424,-0.4353,-0.4359,-0.4131,-0.4098,-0.4276,-0.4275,-0.4273,0,-0.5497,-0.5421,-0.5329,-0.5274,-0.5228,-0.5139,-0.508,-0.5042,-0.498,-0.4882,-0.482,-0.4717,-0.4632,-0.4466,-0.4405,-0.4305,-0.4299,-0.4227,-0.4284,-0.4294,-0.4295,-0.4299,-0.429,-0.4215,-0.4213,-0.4212,-0.4211,0,-0.5335,-0.5319,-0.5236,-0.5145,-0.5076,-0.5002,-0.4929,-0.4883,-0.4834,-0.4764,-0.466,-0.4595,-0.4464,-0.436,-0.4257,-0.4205,-0.4198,-0.4194,-0.4171,-0.4177,-0.4197,-0.4183,-0.4397,-0.4198,-0.42,-0.4201,-0.4201,-0.4202,-0.5223,-0.5155,-0.508,-0.4988,-0.493,-0.4862,-0.479,-0.4743,-0.4657,-0.455,-0.4533,-0.4421,-0.434,-0.4201,-0.4146,-0.4056,-0.4072,-0.404,-0.4031,-0.4022,-0.4017,-0.4214,-0.4037,-0.4038,-0.4038,-0.4038,-0.4038,0,-0.5058,-0.5011,-0.4927,-0.4827,-0.4754,-0.476,-0.4679,-0.4616,-0.4519,-0.4446,-0.4364,-0.4244,-0.4144,-0.4076,-0.3974,-0.3914,-0.3908,-0.3888,-0.389,-0.3878,-0.401,-0.4039,-0.3895,-0.3895,-0.3895,-0.3895,-0.3895,-0.3895,-0.4964,-0.4848,-0.4822,-0.4676,-0.4628,-0.4522,-0.4475,-0.4412,-0.4353,-0.4221,-0.4139,-0.4098,-0.4025,-0.3918,-0.3825,-0.3808,-0.3769,-0.3748,-0.373,-0.3854,-0.3869,-0.3883,-0.391,-0.3741,-0.3741,-0.3605,-0.3604,-0.3603]}]]